Location: Dalton
(42.4737°N, 73.1662°W)
Time: 20:24:30
(UTC+00:00)

Envisat - Pass Details

Date: 24 September 2024
Orbit: 762 x 764 km, 98.3° (Epoch: 09 October)

Event Time Altitude Azimuth Distance (km) Brightness Sun altitude
Rises 06:49:00 0° 30° (NNE) 3,233 7.1 -39.8°
Reaches altitude 10° 06:52:06 10° 50° (NE) 2,302 6.2 -39.4°
Enters shadow 06:54:28 17° 77° (ENE) 1,881 5.4 -39.1°
